Погода в Арнсберге

Германия     51°23′44″N   8°03′56″E
темп.,
°C
ветер,
м/с
пор.,
м/с
влажн.,
%
обл.,
%
осадки,
мм/ч
давл.,
гПа
погр.,
м
14 мая, пт
пт1423:00+10зюз2393100 1.1 100770
02:00+9юз2397100 1.1 100772
05:00+9ююз2497100 0.0 1006129
08:00+10зюз2695100 0.5 1007406
11:00+12з3474100 0.7 1008809
14:00+15сз455126 0.8 10071616
17:00+15з135794 0.0 1006883
20:00+12з248010 0.6 100778
15 мая, сб
сб1523:00+7ю22935 0.1 100830
02:00+7ю35961 0.1 100896
05:00+6ю37975 0.0 1006123
08:00+9ююз488613 0.0 1006573
11:00+11юз4777100 0.3 1006880
14:00+12юз578099 1.1 10051058
17:00+8зюз279392 1.9 1005333
20:00+8зюз1397100 4.0 1004145
16 мая, вс
вс1623:00+8ююз389691 0.4 1004319
02:00+8ююз410919 0.4 1003485
05:00+6ююз4109366 0.0 1003378
08:00+9ююз411885 0.0 1004588
11:00+13юз586011 0.2 10031626
14:00+12юз587941 1.4 10031089
17:00+12зюз588724 2.1 10021207
20:00+10зюз379178 3.3 1002382
17 мая, пн
пн1723:00+7ю3696100 0.2 1003117
02:00+8ююз3995100 0.9 1003329
05:00+8ююз41195100 0.9 1002460
08:00+9юз4993100 1.2 10031230
11:00+8ююз61393100 1.1 10031387
14:00+9юз61295100 3.0 10041324
17:00+10юз61294100 1.2 10041042
20:00+10юз51194100 2.9 1004718
18 мая, вт
вт1823:00+9юз41096100 0.9 1006391
02:00+7ююз389798 1.3 1007260
05:00+8зюз4896100 0.2 1008504
08:00+8зюз3798100 0.8 1010564
11:00+9з4795100 0.6 1012630
14:00+12з698291 1.9 10131452
17:00+11з598590 1.6 1014977
20:00+9з39875 2.8 1015708